EW7617 Weather Reports


time (UTC)temp
F
wind
direction
speed
knots
gust
knots
rain 1hr
in
rain 24hr
in
rain mn
in
humidity
%
barometer
mb
20260906183045 65 236 0.0 4.3 0.37 0.90 0.90 88 1014.6
20260906181538 66 359 1.7 7.0 0.33 0.83 0.83 88 1015.8
20260906180030 67 321 1.7 7.8 0.56 0.73 0.73 88 1016.2
20260906174525 67 344 2.6 7.0 0.59 0.59 0.59 88 1015.7
20260906173021 67 278 0.0 5.2 0.53 0.53 0.53 88 1014.8
20260906171520 67 257 2.6 7.0 0.49 0.49 0.49 88 1014.3
20260906170017 68 316 0.0 2.6 0.13 0.13 0.13 84 1014.3
20260906164514 68 315 0.9 4.3 0.00 0.00 0.00 80 1014.3
20260906163009 72 356 2.6 7.8 0.00 0.00 0.00 73 1014.6
20260906161510 75 255 0.9 1.7 0.00 0.00 0.00 84 1014.0
20260906160003 76 341 0.0 1.7 0.00 0.04 0.00 85 1013.1
20260906154502 75 130 0.0 2.6 0.00 0.04 0.00 87 1013.0
20260906153111 74 229 0.9 2.6 0.00 0.04 0.00 88 1012.7
20260906151556 74 89 1.7 6.1 0.00 0.04 0.00 89 1012.3
20260906150106 73 101 0.0 1.7 0.00 0.04 0.00 90 1012.4
20260906144556 73 189 0.0 1.7 0.00 0.08 0.00 91 1012.7
20260906143055 73 77 0.0 2.6 0.00 0.08 0.00 91 1012.9
20260906141612 73 95 0.9 3.5 0.00 0.08 0.00 91 1013.0
20260906140053 72 41 0.0 1.7 0.00 0.08 0.00 91 1013.0
20260906134551 72 105 0.0 5.2 0.00 0.32 0.00 91 1012.8
20260906133058 72 114 0.9 4.3 0.00 0.32 0.00 91 1012.7
20260906131601 72 84 0.0 2.6 0.00 0.32 0.00 91 1012.8
20260906130057 72 33 0.0 2.6 0.00 0.32 0.00 92 1012.7
20260906124548 72 262 0.0 2.6 0.00 0.32 0.00 92 1012.7
20260906123047 72 94 0.0 4.3 0.00 0.32 0.00 92 1012.6
20260906121546 72 136 0.0 1.7 0.00 0.32 0.00 91 1012.6
20260906120043 72 47 0.0 2.6 0.00 0.32 0.00 91 1012.4
20260906114549 72 304 0.0 3.5 0.00 0.32 0.00 91 1012.2
20260906113042 72 84 0.0 2.6 0.00 0.32 0.00 91 1012.1
20260906111546 72 79 0.9 2.6 0.00 0.32 0.00 91 1012.0
20260906110042 72 70 0.0 2.6 0.00 0.32 0.00 91 1012.0
20260906104540 72 80 0.9 4.3 0.00 0.32 0.00 90 1012.0
20260906103041 73 39 0.0 2.6 0.00 0.32 0.00 90 1011.9
20260906101538 73 94 0.0 1.7 0.00 0.32 0.00 90 1012.0
20260906100037 73 119 0.0 2.6 0.00 0.32 0.00 90 1012.1
20260906094542 73 56 0.0 2.6 0.00 0.32 0.00 90 1012.2
20260906093037 73 78 0.0 1.7 0.00 0.32 0.00 90 1012.2
20260906091536 73 126 0.0 1.7 0.00 0.32 0.00 90 1012.2
20260906090040 73 349 0.0 3.5 0.00 0.32 0.00 90 1012.0
20260906084534 73 40 0.0 2.6 0.00 0.32 0.00 90 1011.8
20260906083032 73 248 0.0 0.9 0.00 0.32 0.00 90 1011.7
20260906081532 74 72 0.0 0.9 0.00 0.32 0.00 90 1011.6
20260906080037 74 237 0.0 1.7 0.00 0.32 0.00 89 1011.7
20260906074532 74 25 0.0 1.7 0.00 0.32 0.00 89 1011.6
20260906073029 74 137 0.9 3.5 0.00 0.32 0.00 90 1011.7
20260906071529 73 41 0.0 0.9 0.00 0.32 0.00 89 1011.7
20260906070027 73 98 0.0 0.9 0.00 0.32 0.00 89 1011.9
20260906064529 73 326 0.0 0.9 0.00 0.32 0.00 89 1011.8
20260906063025 73 111 0.0 0.9 0.00 0.32 0.00 88 1012.0
20260906061524 74 112 0.0 0.9 0.00 0.32 0.00 89 1011.9
20260906060024 74 102 0.0 2.6 0.00 0.32 0.00 89 1011.8
20260906054522 74 141 0.0 2.6 0.00 0.32 0.00 88 1011.9
20260906053024 74 288 0.0 0.9 0.00 0.32 0.00 88 1011.8
20260906051520 74 281 0.0 0.0 0.00 0.32 0.00 88 1011.8
20260906050020 74 281 0.0 0.9 0.00 0.32 0.00 88 1011.9
20260906044519 74 322 0.0 0.0 0.00 0.32 0.32 87 1011.9
20260906043027 74 191 0.0 0.0 0.00 0.32 0.32 87 1011.9
20260906041516 74 191 0.0 0.0 0.00 0.32 0.32 87 1011.8
20260906040015 74 172 0.0 0.9 0.00 0.32 0.32 87 1011.7
20260906034524 75 248 0.0 0.9 0.00 0.32 0.32 86 1011.7
20260906033014 75 321 0.0 0.9 0.00 0.32 0.32 85 1011.7
20260906031520 75 286 0.0 0.9 0.00 0.32 0.32 85 1011.7
20260906030013 75 309 0.0 0.9 0.00 0.32 0.32 84 1011.7
20260906024513 75 293 0.0 0.9 0.00 0.32 0.32 83 1011.6
20260906023012 75 292 0.0 0.9 0.00 0.32 0.32 83 1011.5
20260906021512 75 289 0.0 0.9 0.00 0.32 0.32 82 1011.6
20260906020010 76 333 0.0 0.9 0.00 0.32 0.32 81 1011.2
20260906014510 76 333 0.0 0.9 0.00 0.32 0.32 80 1011.1
20260906013009 76 334 0.0 0.9 0.00 0.32 0.32 78 1011.0
20260906011509 77 349 0.0 0.0 0.00 0.32 0.32 77 1010.7
20260906010009 78 350 0.0 0.9 0.00 0.32 0.32 75 1010.6
20260906004508 79 4 0.0 0.9 0.00 0.32 0.32 73 1010.5
20260906003007 80 315 0.0 0.9 0.00 0.32 0.32 70 1010.6
20260906001506 83 187 0.0 0.9 0.00 0.32 0.32 66 1010.6
20260906000006 84 276 0.0 0.9 0.00 0.32 0.32 64 1010.7
20260905234506 84 274 0.0 1.7 0.00 0.32 0.32 63 1010.7
20260905233004 85 328 0.0 1.7 0.00 0.32 0.32 61 1010.7
20260905231510 87 288 0.0 1.7 0.00 0.32 0.32 59 1010.4
20260905230002 87 70 0.0 5.2 0.00 0.32 0.32 60 1010.4
20260905224502 89 310 0.0 0.9 0.00 0.32 0.32 57 1010.3
20260905223058 87 243 0.0 4.3 0.00 0.32 0.32 58 1010.2
20260905221601 87 148 0.9 4.3 0.00 0.32 0.32 57 1010.3
20260905220059 88 87 0.9 3.5 0.00 0.32 0.32 57 1010.2
20260905214555 87 330 0.0 3.5 0.00 0.32 0.32 57 1010.0
20260905213053 85 131 0.0 3.5 0.00 0.32 0.32 59 1010.0
20260905211553 84 114 1.7 6.1 0.00 0.32 0.32 62 1009.8
20260905210153 85 96 1.7 4.3 0.00 0.32 0.32 57 1009.6
20260905204553 85 117 0.9 2.6 0.00 0.32 0.32 60 1009.7
20260905203052 86 303 0.0 2.6 0.00 0.32 0.32 57 1009.7
20260905201549 85 359 0.0 0.9 0.00 0.32 0.32 61 1009.5
20260905200112 85 311 0.0 1.7 0.00 0.32 0.32 57 1009.4
20260905194548 85 295 0.9 6.1 0.00 0.32 0.32 56 1009.5
20260905193047 87 96 0.0 3.5 0.00 0.32 0.32 58 1009.4
20260905191546 87 99 0.0 1.7 0.00 0.32 0.32 59 1009.3
20260905190041 85 91 0.0 2.6 0.00 0.32 0.32 60 1009.3
20260905184548 83 122 0.0 1.7 0.00 0.32 0.32 66 1009.6